Location: Newark
(41.6500°N, 71.4833°W)
Time: 13:01:39
(UTC+00:00)

A-11 Canister half - Pass Details

Date: 29 January 2020
Orbit: 1517 x 1683 km, 47.2° (Epoch: 26 February)

Event Time Altitude Azimuth Distance (km) Brightness Sun altitude
Rises 03:04:52 0° 229° (SW) 4,781 11.7 -56.2°
Enters shadow 03:05:18 - 229° (SW) 4,638 11.6 -56.2°
Reaches altitude 10° 03:08:00 10° 228° (SW) 3,776 - -56.6°
Maximum altitude 03:17:27 71° 146° (SSE) 1,619 - -58.0°
Drops below altitude 10° 03:26:40 10° 65° (ENE) 3,689 - -59.3°
Sets 03:29:42 0° 64° (ENE) 4,667 - -59.7°
